DW0148 Weather Reports


Display with metric or nautical units.
time (UTC)temp
F
wind
direction
speed
MPH
gust
MPH
rain 1hr
in
rain 24hr
in
rain mn
in
humidity
%
barometer
mb
20210617050804 61 333 0.0 2.0 0.00 0.00 0.00 88 1015.2
20210617050302 61 333 0.0 2.0 0.00 0.00 0.00 88 1015.2
20210617045800 61 333 0.0 2.0 0.00 0.00 0.00 88 1015.2
20210617045259 61 331 0.0 0.0 0.00 0.00 0.00 88 1015.2
20210617044758 61 332 0.0 0.0 0.00 0.00 0.00 88 1015.2
20210617044257 61 332 0.0 0.0 0.00 0.00 0.00 87 1015.2
20210617043754 61 332 0.0 0.0 0.00 0.00 0.00 87 1015.2
20210617043254 61 331 0.0 0.0 0.00 0.00 0.00 87 1015.2
20210617042752 61 332 0.0 0.0 0.00 0.00 0.00 88 1015.2
20210617042251 61 331 0.0 0.0 0.00 0.00 0.00 87 1015.2
20210617041749 61 332 0.0 0.0 0.00 0.00 0.00 88 1015.2
20210617041248 61 331 0.0 0.0 0.00 0.00 0.00 88 1015.2
20210617040747 61 332 0.0 0.0 0.00 0.00 0.00 87 1015.2
20210617040245 62 331 0.0 0.0 0.00 0.00 0.00 87 1015.2
20210617035744 62 332 0.0 0.0 0.00 0.00 0.00 86 1015.2
20210617035238 62 331 0.0 0.0 0.00 0.00 0.00 86 1015.2
20210617034737 62 331 0.0 0.0 0.00 0.00 0.00 86 1015.2
20210617034237 62 331 0.0 0.0 0.00 0.00 0.00 86 1015.2
20210617033735 62 331 0.0 0.0 0.00 0.00 0.00 85 1015.2
20210617033234 63 332 0.0 0.0 0.00 0.00 0.00 85 1015.2
20210617032733 63 332 0.0 0.0 0.00 0.00 0.00 86 1015.2
20210617032232 63 331 0.0 0.0 0.00 0.00 0.00 85 1015.2
20210617031731 63 331 0.0 0.0 0.00 0.00 0.00 85 1015.2
20210617031225 63 331 0.0 0.0 0.00 0.00 0.00 84 1015.2
20210617030723 63 331 0.0 0.0 0.00 0.00 0.00 84 1015.2
20210617030222 63 331 0.0 0.0 0.00 0.00 0.00 84 1015.2
20210617025721 63 331 0.0 0.0 0.00 0.00 0.00 84 1015.2
20210617025220 63 331 0.0 0.0 0.00 0.00 0.00 83 1015.2
20210617024719 64 331 0.0 0.0 0.00 0.00 0.00 83 1014.9
20210617024218 64 331 0.0 0.0 0.00 0.00 0.00 83 1014.9
20210617023717 64 332 0.0 0.0 0.00 0.00 0.00 83 1014.9
20210617023215 64 332 0.0 0.0 0.00 0.00 0.00 82 1014.9
20210617022714 64 331 0.0 0.0 0.00 0.00 0.00 82 1014.9
20210617022209 64 331 0.0 0.0 0.00 0.00 0.00 82 1014.9
20210617021708 65 331 0.0 0.0 0.00 0.00 0.00 81 1014.6
20210617021207 65 331 0.0 0.0 0.00 0.00 0.00 81 1014.6
20210617020705 65 332 0.0 0.0 0.00 0.00 0.00 81 1014.6
20210617020204 65 331 0.0 0.0 0.00 0.00 0.00 80 1014.6
20210617015703 66 331 0.0 0.0 0.00 0.00 0.00 80 1014.6
20210617015202 66 331 0.0 0.0 0.00 0.00 0.00 80 1014.2
20210617014656 66 331 0.0 0.0 0.00 0.00 0.00 79 1014.2
20210617014155 67 332 0.0 0.0 0.00 0.00 0.00 79 1014.2
20210617013654 67 331 0.0 0.0 0.00 0.00 0.00 78 1014.6
20210617013147 67 331 0.0 0.0 0.00 0.00 0.00 77 1014.6
20210617012612 68 331 0.0 0.0 0.00 0.00 0.00 77 1014.6
20210617012109 68 331 0.0 0.0 0.00 0.00 0.00 76 1014.2
20210617011607 69 331 0.0 0.0 0.00 0.00 0.00 76 1014.6
20210617011106 69 332 0.0 0.0 0.00 0.00 0.00 76 1014.6
20210617010605 70 332 0.0 0.0 0.00 0.00 0.00 74 1014.6
20210617010104 70 332 0.0 0.0 0.00 0.00 0.00 74 1014.2
20210617005602 71 331 0.0 0.0 0.00 0.00 0.00 73 1014.6
20210617005101 72 331 0.0 0.0 0.00 0.00 0.00 72 1014.2
20210617004600 72 332 0.0 0.0 0.00 0.00 0.00 70 1014.2
20210617004059 73 331 0.0 0.0 0.00 0.00 0.00 68 1014.2
20210617003558 74 331 0.0 0.0 0.00 0.00 0.00 66 1014.2
20210617003056 74 332 0.0 2.0 0.00 0.00 0.00 64 1014.2
20210617002554 74 331 0.0 2.0 0.00 0.00 0.00 58 1014.2
20210617002053 75 331 0.0 2.0 0.00 0.00 0.00 57 1014.2
20210617001551 75 331 0.0 2.0 0.00 0.00 0.00 56 1014.2
20210617001050 76 332 0.0 2.0 0.00 0.00 0.00 56 1013.9
20210617000548 76 332 0.0 3.0 0.00 0.00 0.00 56 1013.9
20210617000047 76 331 0.0 3.0 0.00 0.00 0.00 54 1013.9
20210616235546 77 331 1.0 3.0 0.00 0.00 0.00 53 1013.9
20210616235044 77 43 2.0 3.0 0.00 0.00 0.00 53 1013.9
20210616234543 77 35 0.0 2.0 0.00 0.00 0.00 52 1013.9
20210616234042 78 36 0.0 2.0 0.00 0.00 0.00 53 1013.9
20210616233540 78 35 0.0 2.0 0.00 0.00 0.00 51 1013.9
20210616233039 78 36 1.0 8.0 0.00 0.00 0.00 49 1013.9
20210616232538 79 35 0.0 8.0 0.00 0.00 0.00 50 1013.9
20210616232036 79 348 1.0 9.0 0.00 0.00 0.00 51 1013.5
20210616231532 79 31 3.0 9.0 0.00 0.00 0.00 50 1013.5
20210616231031 79 8 2.0 8.0 0.00 0.00 0.00 48 1013.5
20210616230530 79 49 0.0 8.0 0.00 0.00 0.00 48 1013.5
20210616230028 79 317 0.0 8.0 0.00 0.00 0.00 47 1013.5
20210616225527 80 22 3.0 8.0 0.00 0.00 0.00 49 1013.5
20210616225025 80 45 2.0 3.0 0.00 0.00 0.00 47 1013.5
20210616224521 80 58 1.0 3.0 0.00 0.00 0.00 45 1013.5
20210616224016 81 58 0.0 3.0 0.00 0.00 0.00 44 1013.5
20210616223514 81 63 0.0 5.0 0.00 0.00 0.00 46 1013.5
20210616223013 81 3 1.0 5.0 0.00 0.00 0.00 44 1013.5
20210616222512 81 151 1.0 6.0 0.00 0.00 0.00 45 1013.9
20210616222011 81 127 1.0 6.0 0.00 0.00 0.00 45 1013.9
20210616221510 82 271 1.0 6.0 0.00 0.00 0.00 43 1013.9
20210616221009 82 8 4.0 5.0 0.00 0.00 0.00 44 1013.5
20210616220507 82 93 3.0 5.0 0.00 0.00 0.00 41 1013.5
20210616220006 82 6 1.0 6.0 0.00 0.00 0.00 45 1013.9
20210616215504 83 45 1.0 6.0 0.00 0.00 0.00 44 1013.9
20210616215004 83 335 2.0 12.0 0.00 0.00 0.00 39 1013.5
20210616214503 83 9 2.0 12.0 0.00 0.00 0.00 41 1013.9
20210616214001 84 6 1.0 14.0 0.00 0.00 0.00 41 1013.9
20210616213500 84 34 3.0 14.0 0.00 0.00 0.00 39 1013.9
20210616212958 85 12 2.0 11.0 0.00 0.00 0.00 40 1013.9
20210616212456 85 46 2.0 11.0 0.00 0.00 0.00 44 1013.9
20210616211955 86 246 1.0 5.0 0.00 0.00 0.00 43 1013.9
20210616211454 85 138 1.0 5.0 0.00 0.00 0.00 43 1013.9
20210616210949 85 68 2.0 9.0 0.00 0.00 0.00 42 1013.9
20210616210448 85 341 2.0 9.0 0.00 0.00 0.00 44 1013.9
20210616205946 84 54 0.0 9.0 0.00 0.00 0.00 42 1014.2
20210616205445 84 43 4.0 9.0 0.00 0.00 0.00 42 1014.2
20210616204944 84 328 2.0 11.0 0.00 0.00 0.00 45 1014.2
20210616204442 84 35 3.0 12.0 0.00 0.00 0.00 42 1014.2
20210616203941 84 23 4.0 12.0 0.00 0.00 0.00 41 1014.2
20210616203440 84 5 3.0 11.0 0.00 0.00 0.00 42 1014.2
20210616202938 84 69 2.0 11.0 0.00 0.00 0.00 44 1014.6
20210616202437 84 24 2.0 11.0 0.00 0.00 0.00 44 1014.6
20210616201935 84 349 4.0 11.0 0.00 0.00 0.00 41 1014.6
20210616201434 84 40 4.0 9.0 0.00 0.00 0.00 40 1014.2
20210616200932 85 23 3.0 8.0 0.00 0.00 0.00 41 1014.2
20210616200432 85 331 2.0 9.0 0.00 0.00 0.00 44 1014.2
20210616195930 84 43 3.0 9.0 0.00 0.00 0.00 44 1014.2
20210616195429 84 334 3.0 9.0 0.00 0.00 0.00 45 1014.2
20210616194928 84 309 3.0 9.0 0.00 0.00 0.00 42 1014.2
20210616194427 84 334 2.0 11.0 0.00 0.00 0.00 42 1014.2
20210616193926 84 31 5.0 11.0 0.00 0.00 0.00 42 1014.6
20210616193422 85 129 2.0 5.0 0.00 0.00 0.00 42 1014.6
20210616192922 85 201 1.0 9.0 0.00 0.00 0.00 46 1014.6
20210616192421 84 78 1.0 9.0 0.00 0.00 0.00 40 1014.6
20210616191920 84 358 1.0 9.0 0.00 0.00 0.00 41 1014.6
20210616191419 83 30 2.0 9.0 0.00 0.00 0.00 47 1014.6
20210616190917 83 21 3.0 9.0 0.00 0.00 0.00 46 1014.6
20210616190417 83 332 2.0 9.0 0.00 0.00 0.00 43 1014.6
20210616185915 82 277 1.0 9.0 0.00 0.00 0.00 46 1014.6
20210616185414 82 46 3.0 9.0 0.00 0.00 0.00 43 1014.6
20210616184913 82 1 3.0 9.0 0.00 0.00 0.00 46 1014.6
20210616184410 82 28 2.0 8.0 0.00 0.00 0.00 44 1014.6
20210616183909 83 342 3.0 8.0 0.00 0.00 0.00 43 1014.9
20210616183407 83 253 1.0 9.0 0.00 0.00 0.00 49 1014.9
20210616182905 83 332 2.0 9.0 0.00 0.00 0.00 47 1014.9
20210616182404 83 31 2.0 11.0 0.00 0.00 0.00 51 1014.9
20210616181857 84 296 1.0 11.0 0.00 0.00 0.00 45 1014.9
20210616181356 84 19 3.0 8.0 0.00 0.00 0.00 44 1014.9
20210616180855 84 284 1.0 5.0 0.00 0.00 0.00 52 1014.9
20210616180353 83 134 2.0 8.0 0.00 0.00 0.00 47 1014.9
20210616175852 81 131 2.0 8.0 0.00 0.00 0.00 47 1014.9
20210616175351 80 171 1.0 9.0 0.00 0.00 0.00 49 1014.9
20210616174850 80 21 3.0 9.0 0.00 0.00 0.00 47 1015.2
20210616174349 79 127 1.0 6.0 0.00 0.00 0.00 52 1015.2
20210616173847 80 292 2.0 14.0 0.00 0.00 0.00 47 1015.2
20210616173346 80 323 2.0 14.0 0.00 0.00 0.00 47 1015.2
20210616172845 80 358 2.0 14.0 0.00 0.00 0.00 47 1015.2
20210616172344 81 320 2.0 14.0 0.00 0.00 0.00 45 1015.6
20210616171842 81 359 4.0 15.0 0.00 0.00 0.00 46 1015.6
20210616171340 81 353 7.0 15.0 0.00 0.00 0.00 45 1015.6
20210616170838 81 346 5.0 12.0 0.00 0.00 0.00 46 1015.6
20210616170337 81 41 4.0 11.0 0.00 0.00 0.00 45 1015.2
20210616165836 81 2 4.0 11.0 0.00 0.00 0.00 44 1015.6
20210616165335 82 344 5.0 12.0 0.00 0.00 0.00 42 1015.9
20210616164834 81 327 2.0 12.0 0.00 0.00 0.00 48 1015.9
20210616164333 81 8 2.0 12.0 0.00 0.00 0.00 47 1015.9
20210616163832 80 344 6.0 12.0 0.00 0.00 0.00 47 1015.9
20210616163331 80 12 3.0 11.0 0.00 0.00 0.00 48 1015.9
20210616162830 81 352 4.0 11.0 0.00 0.00 0.00 45 1015.9
20210616162328 81 345 4.0 9.0 0.00 0.00 0.00 50 1015.9
20210616161826 81 338 2.0 12.0 0.00 0.00 0.00 45 1015.9
20210616161324 80 9 3.0 12.0 0.00 0.00 0.00 50 1015.9
20210616160822 80 6 5.0 12.0 0.00 0.00 0.00 51 1015.9
20210616160320 80 342 4.0 12.0 0.00 0.00 0.00 49 1015.9
20210616155812 80 345 4.0 11.0 0.00 0.00 0.00 49 1015.9
20210616155311 80 12 4.0 9.0 0.00 0.00 0.00 52 1015.9
20210616154809 80 38 2.0 14.0 0.00 0.00 0.00 52 1015.9
20210616154308 79 3 3.0 14.0 0.00 0.00 0.00 52 1015.9
20210616153806 79 348 3.0 15.0 0.00 0.00 0.00 52 1015.9
20210616153305 79 340 7.0 15.0 0.00 0.00 0.00 49 1015.9
20210616152804 79 350 6.0 14.0 0.00 0.00 0.00 50 1015.9
20210616152302 79 329 2.0 14.0 0.00 0.00 0.00 53 1015.9
20210616151800 80 359 2.0 6.0 0.00 0.00 0.00 55 1015.9
20210616151259 80 5 2.0 6.0 0.00 0.00 0.00 55 1015.9
20210616150757 79 11 1.0 6.0 0.00 0.00 0.00 56 1015.9
20210616150257 79 321 0.0 6.0 0.00 0.00 0.00 59 1015.9
20210616145755 79 20 2.0 6.0 0.00 0.00 0.00 56 1015.9
20210616145254 78 341 2.0 6.0 0.00 0.00 0.00 59 1016.3
20210616144753 78 325 1.0 6.0 0.00 0.00 0.00 60 1015.9
20210616144251 78 89 0.0 6.0 0.00 0.00 0.00 57 1015.9
20210616143750 79 358 3.0 6.0 0.00 0.00 0.00 58 1015.9
20210616143249 78 1 0.0 3.0 0.00 0.00 0.00 61 1015.9
20210616142748 77 334 2.0 3.0 0.00 0.00 0.00 63 1015.9
20210616142247 77 13 0.0 3.0 0.00 0.00 0.00 63 1015.9
20210616141744 76 16 0.0 3.0 0.00 0.00 0.00 67 1015.9
20210616141243 76 339 1.0 2.0 0.00 0.00 0.00 65 1015.9
20210616140741 76 323 0.0 3.0 0.00 0.00 0.00 67 1015.9
20210616140240 75 351 0.0 3.0 0.00 0.00 0.00 67 1015.9
20210616135738 74 349 1.0 3.0 0.00 0.00 0.00 69 1015.9
20210616135237 74 342 0.0 3.0 0.00 0.00 0.00 70 1015.9
20210616134736 74 338 1.0 2.0 0.00 0.00 0.00 69 1015.9
20210616134234 74 68 0.0 2.0 0.00 0.00 0.00 70 1015.9
20210616133733 74 49 0.0 2.0 0.00 0.00 0.00 70 1015.6
20210616133232 74 5 0.0 2.0 0.00 0.00 0.00 72 1015.6
20210616132731 73 327 1.0 2.0 0.00 0.00 0.00 71 1015.6
20210616132230 73 345 1.0 2.0 0.00 0.00 0.00 71 1015.6
20210616131729 72 30 0.0 2.0 0.00 0.00 0.00 71 1015.6
20210616131228 72 336 1.0 2.0 0.00 0.00 0.00 71 1015.6
20210616130726 72 341 0.0 0.0 0.00 0.00 0.00 76 1015.6
20210616130224 71 53 0.0 2.0 0.00 0.00 0.00 77 1015.6
20210616125723 70 30 0.0 5.0 0.00 0.00 0.00 77 1015.6
20210616125222 69 349 0.0 5.0 0.00 0.00 0.00 81 1015.6
20210616124720 68 328 1.0 5.0 0.00 0.00 0.00 79 1015.2
20210616124219 68 345 0.0 2.0 0.00 0.00 0.00 81 1015.2
20210616123718 67 336 0.0 2.0 0.00 0.00 0.00 83 1015.2
20210616123217 67 4 0.0 2.0 0.00 0.00 0.00 85 1015.2
20210616122716 66 315 0.0 2.0 0.00 0.00 0.00 86 1015.2
20210616122214 65 312 0.0 2.0 0.00 0.00 0.00 92 1015.2
20210616121709 64 47 0.0 0.0 0.00 0.00 0.00 96 1015.2
20210616121208 63 46 0.0 0.0 0.00 0.00 0.00 96 1015.2
20210616120707 62 46 0.0 0.0 0.00 0.00 0.00 96 1015.2
20210616120206 62 47 0.0 0.0 0.00 0.00 0.00 96 1014.9
20210616115705 61 47 0.0 0.0 0.00 0.00 0.00 96 1014.9
20210616115203 61 47 0.0 0.0 0.00 0.00 0.00 96 1015.2
20210616114702 61 46 0.0 0.0 0.00 0.00 0.00 96 1015.2
20210616114201 60 47 0.0 0.0 0.00 0.00 0.00 96 1014.9
20210616113700 59 46 0.0 0.0 0.00 0.00 0.00 96 1014.9
20210616113159 59 47 0.0 0.0 0.00 0.00 0.00 96 1014.9
20210616112657 59 47 0.0 0.0 0.00 0.00 0.00 96 1014.9
20210616112157 58 47 0.0 0.0 0.00 0.00 0.00 96 1014.9
20210616111655 58 47 0.0 0.0 0.00 0.00 0.00 96 1014.9
20210616111154 58 47 0.0 0.0 0.00 0.00 0.00 96 1014.9
20210616110649 58 46 0.0 0.0 0.00 0.00 0.00 96 1014.9
20210616110148 58 46 0.0 0.0 0.00 0.00 0.00 96 1014.9
20210616105647 58 46 0.0 0.0 0.00 0.00 0.00 96 1014.9
20210616105146 58 47 0.0 0.0 0.00 0.00 0.00 96 1014.9
20210616104645 58 47 0.0 0.0 0.00 0.00 0.00 96 1014.9
20210616104144 58 46 0.0 0.0 0.00 0.00 0.00 96 1014.9
20210616103643 57 46 0.0 0.0 0.00 0.00 0.00 96 1014.9
20210616103142 57 47 0.0 0.0 0.00 0.00 0.00 96 1014.9
20210616102641 57 47 0.0 0.0 0.00 0.00 0.00 96 1014.9
20210616102140 57 47 0.0 0.0 0.00 0.00 0.00 96 1014.6
20210616101639 57 46 0.0 0.0 0.00 0.00 0.00 96 1014.6
20210616101137 57 47 0.0 0.0 0.00 0.00 0.00 96 1014.6
20210616100636 57 47 0.0 0.0 0.00 0.00 0.00 96 1014.6
20210616100134 57 47 0.0 0.0 0.00 0.00 0.00 96 1014.6
20210616095633 57 47 0.0 0.0 0.00 0.00 0.00 96 1014.6
20210616095133 57 46 0.0 0.0 0.00 0.00 0.00 96 1014.6
20210616094631 57 47 0.0 0.0 0.00 0.00 0.00 95 1014.6
20210616094130 57 47 0.0 0.0 0.00 0.00 0.00 95 1014.6
20210616093629 57 47 0.0 0.0 0.00 0.00 0.00 95 1014.6
20210616093128 57 46 0.0 0.0 0.00 0.00 0.00 95 1014.6
20210616092626 57 47 0.0 0.0 0.00 0.00 0.00 95 1014.6
20210616092125 57 47 0.0 0.0 0.00 0.00 0.00 95 1014.6
20210616091623 57 47 0.0 0.0 0.00 0.00 0.00 95 1014.6
20210616091122 57 47 0.0 0.0 0.00 0.00 0.00 95 1014.6
20210616090621 57 47 0.0 0.0 0.00 0.00 0.00 95 1014.6
20210616090120 57 46 0.0 0.0 0.00 0.00 0.00 95 1014.6
20210616085619 58 46 0.0 0.0 0.00 0.00 0.00 95 1014.2
20210616085118 58 47 0.0 0.0 0.00 0.00 0.00 95 1014.2
20210616084617 58 47 0.0 0.0 0.00 0.00 0.00 95 1014.2
20210616084116 58 47 0.0 0.0 0.00 0.00 0.00 95 1014.2
20210616083614 58 47 0.0 0.0 0.00 0.00 0.00 95 1014.2
20210616083113 58 46 0.0 0.0 0.00 0.00 0.00 95 1014.2
20210616082612 58 47 0.0 0.0 0.00 0.00 0.00 95 1014.2
20210616082111 58 47 0.0 0.0 0.00 0.00 0.00 95 1014.2
20210616081609 58 47 0.0 0.0 0.00 0.00 0.00 95 1014.2
20210616081108 58 47 0.0 0.0 0.00 0.00 0.00 95 1014.2
20210616080607 58 47 0.0 0.0 0.00 0.00 0.00 95 1014.2
20210616080105 59 46 0.0 0.0 0.00 0.00 0.00 94 1014.2
20210616075604 59 46 0.0 0.0 0.00 0.00 0.00 95 1014.2
20210616075103 59 47 0.0 0.0 0.00 0.00 0.00 95 1014.2
20210616074602 59 47 0.0 0.0 0.00 0.00 0.00 95 1014.2
20210616074101 59 47 0.0 0.0 0.00 0.00 0.00 95 1014.2
20210616073600 59 47 0.0 0.0 0.00 0.00 0.00 94 1014.2
20210616073059 59 47 0.0 0.0 0.00 0.00 0.00 94 1014.2
20210616072558 59 47 0.0 0.0 0.00 0.00 0.00 94 1014.2
20210616072057 59 47 0.0 0.0 0.00 0.00 0.00 94 1014.2
20210616071554 59 47 0.0 0.0 0.00 0.00 0.00 94 1014.2
20210616071050 59 47 0.0 0.0 0.00 0.00 0.00 94 1014.2
20210616070549 59 46 0.0 0.0 0.00 0.00 0.00 94 1014.2
20210616070048 59 46 0.0 0.0 0.00 0.00 0.00 94 1014.2
20210616065547 59 47 0.0 0.0 0.00 0.00 0.00 94 1014.2
20210616065046 59 47 0.0 0.0 0.00 0.00 0.00 93 1014.2
20210616064545 59 47 0.0 0.0 0.00 0.00 0.00 93 1014.2
20210616064044 59 47 0.0 0.0 0.00 0.00 0.00 93 1014.2
20210616063543 59 47 0.0 0.0 0.00 0.00 0.00 93 1014.2
20210616063043 59 47 0.0 0.0 0.00 0.00 0.00 93 1014.2
20210616062541 59 47 0.0 0.0 0.00 0.00 0.00 93 1014.2
20210616062040 59 47 0.0 0.0 0.00 0.00 0.00 93 1014.2
20210616061539 59 47 0.0 0.0 0.00 0.00 0.00 92 1014.2
20210616061038 59 47 0.0 0.0 0.00 0.00 0.00 92 1014.2
20210616060537 59 47 0.0 0.0 0.00 0.00 0.00 92 1014.2
20210616060035 60 47 0.0 0.0 0.00 0.00 0.00 92 1014.2
20210616055531 60 47 0.0 0.0 0.00 0.00 0.00 92 1014.2
20210616055029 60 47 0.0 0.0 0.00 0.00 0.00 92 1014.6
20210616054528 60 47 0.0 0.0 0.00 0.00 0.00 91 1014.2
20210616054027 60 47 0.0 0.0 0.00 0.00 0.00 92 1014.2
20210616053526 60 46 0.0 0.0 0.00 0.00 0.00 91 1014.2
20210616053023 60 47 0.0 0.0 0.00 0.00 0.00 91 1014.2
20210616052522 60 47 0.0 0.0 0.00 0.00 0.00 91 1014.2
20210616052021 60 47 0.0 0.0 0.00 0.00 0.00 91 1014.2
20210616051520 60 47 0.0 0.0 0.00 0.00 0.00 91 1014.2